GW3393 Weather Reports


time (UTC)temp
C
wind
direction
speed
KPH
gust
KPH
rain 1hr
cm
rain 24hr
cm
rain mn
cm
humidity
%
barometer
mb
20260507233254 14 309 9.7 12.9 0.00 0.00 0.00 43 1013.6
20260507232751 14 259 9.7 11.3 0.00 0.00 0.00 42 1013.4
20260507232247 14 281 9.7 16.1 0.00 0.00 0.00 41 1013.5
20260507231744 14 266 16.1 20.9 0.00 0.00 0.00 42 1013.4
20260507231240 14 319 14.5 19.3 0.00 0.00 0.00 42 1013.3
20260507230738 14 260 17.7 27.4 0.00 0.00 0.00 41 1013.3
20260507230235 15 238 8.0 17.7 0.00 0.00 0.00 42 1013.3
20260507225735 15 278 4.8 22.5 0.00 0.00 0.00 41 1013.3
20260507225231 15 280 6.4 16.1 0.00 0.00 0.00 41 1013.2
20260507224727 15 285 8.0 19.3 0.00 0.00 0.00 39 1013.2
20260507224224 15 281 14.5 14.5 0.00 0.00 0.00 41 1013.3
20260507223720 15 288 8.0 22.5 0.00 0.00 0.00 42 1013.2
20260507223217 15 240 8.0 16.1 0.00 0.00 0.00 41 1013.2
20260507222713 15 296 8.0 12.9 0.00 0.00 0.00 41 1013.3
20260507222209 15 307 12.9 27.4 0.00 0.00 0.00 41 1013.0
20260507221706 15 281 12.9 22.5 0.00 0.00 0.00 41 1012.9
20260507221203 15 231 6.4 24.1 0.00 0.00 0.00 40 1012.9
20260507220659 15 252 6.4 24.1 0.00 0.00 0.00 40 1013.1
20260507220158 15 268 11.3 20.9 0.00 0.00 0.00 39 1013.0
20260507215653 15 248 11.3 16.1 0.00 0.00 0.00 42 1012.9
20260507215151 16 309 8.0 19.3 0.00 0.00 0.00 39 1012.7
20260507214648 16 286 8.0 14.5 0.00 0.00 0.00 41 1012.7
20260507214144 15 254 11.3 25.7 0.00 0.00 0.00 40 1012.6
20260507213640 16 312 8.0 12.9 0.00 0.00 0.00 41 1012.6
20260507213138 16 260 12.9 16.1 0.00 0.00 0.00 41 1012.4
20260507212634 15 286 4.8 16.1 0.00 0.00 0.00 44 1012.8
20260507212131 15 227 11.3 25.7 0.00 0.00 0.00 41 1012.7
20260507211628 15 247 8.0 25.7 0.00 0.00 0.00 41 1012.6
20260507211123 15 270 6.4 16.1 0.00 0.00 0.00 43 1012.4
20260507210622 15 272 12.9 24.1 0.00 0.00 0.00 43 1012.3
20260507210118 15 254 11.3 22.5 0.00 0.00 0.00 43 1012.6
20260507205615 15 268 8.0 24.1 0.00 0.00 0.00 42 1012.4
20260507205111 15 234 16.1 19.3 0.00 0.00 0.00 42 1012.8
20260507204607 15 312 14.5 24.1 0.00 0.00 0.00 44 1012.6
20260507204104 15 269 16.1 29.0 0.00 0.00 0.00 42 1012.4
20260507203602 15 322 8.0 25.7 0.00 0.00 0.00 42 1012.4
20260507203100 16 303 8.0 20.9 0.00 0.00 0.00 42 1012.3
20260507202555 15 286 17.7 22.5 0.00 0.00 0.00 41 1012.3
20260507202051 15 250 12.9 29.0 0.00 0.00 0.00 42 1012.4
20260507201547 16 264 19.3 32.2 0.00 0.00 0.00 43 1012.4
20260507201044 16 216 11.3 12.9 0.00 0.00 0.00 43 1012.4
20260507200539 15 280 8.0 19.3 0.00 0.00 0.00 43 1012.7
20260507200036 15 256 11.3 24.1 0.00 0.00 0.00 44 1012.7
20260507195533 15 288 9.7 25.7 0.00 0.00 0.00 45 1012.8
20260507195030 15 225 12.9 14.5 0.00 0.00 0.00 47 1012.9
20260507194527 15 253 6.4 20.9 0.00 0.00 0.00 47 1013.0
20260507194023 16 247 14.5 27.4 0.00 0.00 0.00 42 1013.0
20260507193520 16 280 24.1 32.2 0.00 0.00 0.00 44 1013.0
20260507193017 16 297 14.5 32.2 0.00 0.00 0.00 42 1013.2
20260507192513 15 256 12.9 17.7 0.00 0.00 0.00 45 1012.9
20260507192010 14 279 14.5 29.0 0.00 0.00 0.00 45 1013.0
20260507191505 15 254 9.7 22.5 0.00 0.00 0.00 44 1012.9
20260507191003 15 299 8.0 20.9 0.00 0.00 0.00 44 1013.2
20260507190500 15 265 12.9 27.4 0.00 0.00 0.00 44 1013.3
20260507185959 15 264 14.5 24.1 0.00 0.00 0.00 44 1013.2
20260507185456 15 270 4.8 20.9 0.00 0.00 0.00 44 1013.1
20260507184952 14 284 14.5 20.9 0.00 0.00 0.00 46 1013.2
20260507184450 15 311 14.5 24.1 0.00 0.00 0.00 45 1013.1
20260507183948 15 236 11.3 27.4 0.00 0.00 0.00 45 1013.2
20260507183444 15 302 16.1 27.4 0.00 0.00 0.00 45 1013.2
20260507182941 15 252 11.3 29.0 0.00 0.00 0.00 46 1013.3
20260507182437 14 284 14.5 20.9 0.00 0.00 0.00 46 1013.1
20260507181934 14 292 14.5 27.4 0.00 0.00 0.00 45 1013.2
20260507181430 15 261 16.1 30.6 0.00 0.00 0.00 43 1013.2
20260507180927 15 276 8.0 16.1 0.00 0.00 0.00 47 1013.3
20260507180423 14 287 8.0 14.5 0.00 0.00 0.00 48 1013.3
20260507175919 13 305 8.0 11.3 0.00 0.00 0.00 50 1013.5
20260507175417 13 286 9.7 16.1 0.00 0.00 0.00 50 1013.4
20260507174914 13 305 9.7 16.1 0.00 0.00 0.00 48 1013.4
20260507174412 13 4 6.4 11.3 0.00 0.00 0.00 49 1013.4
20260507173909 13 289 8.0 17.7 0.00 0.00 0.00 47 1013.6
20260507173406 13 21 3.2 20.9 0.00 0.00 0.00 48 1013.7
20260507172902 15 279 16.1 32.2 0.00 0.00 0.00 48 1013.6
20260507172359 15 295 9.7 17.7 0.00 0.00 0.00 46 1013.7
20260507171855 14 281 6.4 22.5 0.00 0.00 0.00 47 1013.9
20260507171351 14 306 9.7 27.4 0.00 0.00 0.00 47 1014.0
20260507170849 14 312 6.4 20.9 0.00 0.00 0.00 46 1014.1
20260507170345 15 212 6.4 8.0 0.00 0.00 0.00 54 1014.3
20260507165842 13 198 9.7 17.7 0.00 0.00 0.00 49 1014.2
20260507165337 12 310 8.0 11.3 0.00 0.00 0.00 50 1014.3
20260507164834 12 278 6.4 16.1 0.00 0.00 0.00 49 1014.0
20260507164331 13 331 19.3 19.3 0.00 0.00 0.00 50 1014.3
20260507163828 13 282 3.2 8.0 0.00 0.00 0.00 51 1014.3
20260507163325 12 258 8.0 11.3 0.00 0.00 0.00 51 1014.3
20260507162821 13 285 12.9 17.7 0.00 0.00 0.00 50 1014.4
20260507162317 14 236 11.3 14.5 0.00 0.00 0.00 48 1014.3
20260507161814 14 217 14.5 16.1 0.00 0.00 0.00 48 1014.3
20260507161311 13 254 3.2 8.0 0.00 0.00 0.00 49 1014.6
20260507160807 12 288 11.3 16.1 0.00 0.00 0.00 52 1014.6
20260507160303 12 314 8.0 11.3 0.00 0.00 0.00 52 1014.5
20260507155759 12 284 4.8 12.9 0.00 0.00 0.00 52 1014.6
20260507155255 13 159 3.2 9.7 0.00 0.00 0.00 53 1014.6
20260507154752 13 270 0.0 4.8 0.00 0.00 0.00 55 1014.7
20260507154250 12 353 3.2 11.3 0.00 0.00 0.00 54 1014.9
20260507153746 13 17 4.8 14.5 0.00 0.00 0.00 50 1014.7
20260507153242 13 148 1.6 6.4 0.00 0.00 0.00 52 1014.7
20260507152739 12 301 4.8 11.3 0.00 0.00 0.00 51 1014.9
20260507152236 12 264 6.4 14.5 0.00 0.00 0.00 54 1014.9
20260507151731 13 237 0.0 8.0 0.00 0.00 0.00 55 1014.9
20260507151228 12 315 3.2 11.3 0.00 0.00 0.00 55 1014.9
20260507150725 12 275 6.4 14.5 0.00 0.00 0.00 58 1015.0
20260507150222 12 268 8.0 14.5 0.00 0.00 0.00 56 1015.0
20260507145718 13 123 4.8 8.0 0.00 0.00 0.00 56 1015.3
20260507145214 13 133 8.0 11.3 0.00 0.00 0.00 56 1015.3
20260507144711 12 151 0.0 14.5 0.00 0.00 0.00 60 1015.3
20260507144210 12 180 1.6 11.3 0.00 0.00 0.00 57 1015.4
20260507143706 13 258 1.6 4.8 0.00 0.00 0.00 57 1015.3
20260507143203 12 251 9.7 17.7 0.00 0.00 0.00 56 1015.6
20260507142658 12 223 11.3 16.1 0.00 0.00 0.00 56 1015.7
20260507142155 11 132 3.2 11.3 0.00 0.00 0.00 57 1015.6
20260507141651 11 57 3.2 4.8 0.00 0.00 0.00 61 1015.7
20260507141149 11 311 0.0 8.0 0.00 0.00 0.00 60 1015.6
20260507140645 11 281 4.8 16.1 0.00 0.00 0.00 59 1015.9
20260507140142 12 293 12.9 16.1 0.00 0.00 0.00 57 1015.9
20260507135639 12 190 4.8 4.8 0.00 0.00 0.00 60 1015.9
20260507135137 12 210 4.8 12.9 0.00 0.00 0.00 61 1016.2
20260507134633 11 301 4.8 12.9 0.00 0.00 0.00 58 1016.2
20260507134129 11 261 6.4 12.9 0.00 0.00 0.00 58 1016.1
20260507133625 12 280 4.8 4.8 0.00 0.00 0.00 59 1016.2
20260507133123 12 47 4.8 8.0 0.00 0.00 0.00 59 1016.1
20260507132620 11 294 1.6 8.0 0.00 0.00 0.00 63 1016.1
20260507132116 12 192 3.2 8.0 0.00 0.00 0.00 63 1016.3
20260507131613 11 141 0.0 4.8 0.00 0.00 0.00 66 1016.3
20260507131111 12 180 4.8 8.0 0.00 0.00 0.00 68 1016.5
20260507130607 11 188 4.8 6.4 0.00 0.00 0.00 66 1016.3
20260507130105 11 145 8.0 9.7 0.00 0.00 0.00 66 1016.1
20260507125604 12 180 3.2 9.7 0.00 0.00 0.00 71 1016.3
20260507125101 11 150 6.4 8.0 0.00 0.00 0.00 70 1016.3
20260507124557 11 142 4.8 9.7 0.00 0.00 0.00 74 1016.3
20260507124055 10 178 4.8 6.4 0.00 0.00 0.00 76 1016.4
20260507123553 10 168 3.2 6.4 0.00 0.00 0.00 78 1016.2
20260507123049 10 195 6.4 8.0 0.00 0.00 0.00 79 1016.2
20260507122545 10 135 4.8 6.4 0.00 0.00 0.00 81 1016.2
20260507122041 10 194 4.8 6.4 0.00 0.00 0.00 80 1016.2
20260507121536 9 180 4.8 4.8 0.00 0.00 0.00 81 1016.4
20260507121032 8 172 0.0 6.4 0.00 0.00 0.00 81 1016.3
20260507120528 9 192 6.4 6.4 0.00 0.00 0.00 81 1016.2
20260507120026 9 210 4.8 6.4 0.00 0.00 0.00 82 1016.2
20260507115522 8 183 4.8 4.8 0.00 0.00 0.00 82 1016.0
20260507115018 8 180 1.6 3.2 0.00 0.00 0.00 86 1016.2
20260507114514 8 217 3.2 4.8 0.00 0.00 0.00 87 1016.2
20260507114011 7 196 3.2 4.8 0.00 0.00 0.00 89 1016.1
20260507113508 7 180 1.6 3.2 0.00 0.00 0.00 90 1016.1
20260507113006 7 180 3.2 3.2 0.00 0.00 0.00 90 1016.0
20260507112503 7 180 0.0 3.2 0.00 0.00 0.00 89 1016.0
20260507111959 7 172 4.8 4.8 0.00 0.00 0.00 89 1016.2
20260507111457 7 209 3.2 3.2 0.00 0.00 0.00 89 1015.9
20260507110953 7 209 3.2 3.2 0.00 0.00 0.00 89 1015.7
20260507110449 7 199 3.2 3.2 0.00 0.00 0.00 89 1015.9
20260507105946 7 154 1.6 3.2 0.00 0.00 0.00 89 1016.0
20260507105443 7 206 1.6 4.8 0.00 0.00 0.00 88 1015.9
20260507104940 6 180 3.2 3.2 0.00 0.00 0.00 87 1015.6
20260507104437 7 180 0.0 3.2 0.00 0.00 0.00 85 1015.5
20260507103932 7 90 0.0 3.2 0.00 0.00 0.00 86 1015.6
20260507103429 6 75 0.0 1.6 0.00 0.00 0.00 86 1015.5
20260507102925 6 111 0.0 1.6 0.00 0.00 0.00 86 1015.5
20260507102423 6 45 0.0 3.2 0.00 0.00 0.00 85 1015.4
20260507101919 6 98 1.6 1.6 0.00 0.00 0.00 84 1015.5
20260507101414 6 90 0.0 1.6 0.00 0.00 0.00 84 1015.4
20260507100910 6 84 1.6 1.6 0.00 0.00 0.00 83 1015.6
20260507100408 6 29 0.0 4.8 0.00 0.00 0.00 82 1015.3
20260507095906 7 63 0.0 3.2 0.00 0.00 0.00 81 1015.5
20260507095403 7 20 1.6 4.8 0.00 0.00 0.00 80 1015.3
20260507094900 7 10 4.8 8.0 0.00 0.00 0.00 80 1015.4
20260507094357 7 31 8.0 8.0 0.00 0.00 0.00 80 1015.3
20260507093853 7 3 3.2 9.7 0.00 0.00 0.00 80 1015.3
20260507093352 7 21 8.0 11.3 0.00 0.00 0.00 80 1015.3
20260507092849 7 16 6.4 8.0 0.00 0.00 0.00 79 1015.4
20260507092345 7 15 4.8 8.0 0.00 0.00 0.00 79 1015.3
20260507091842 7 23 8.0 8.0 0.00 0.00 0.00 80 1015.0
20260507091338 7 36 8.0 8.0 0.00 0.00 0.00 79 1015.0
20260507090834 7 40 4.8 8.0 0.00 0.00 0.00 79 1015.2
20260507090331 7 13 4.8 9.7 0.00 0.00 0.00 78 1015.2
20260507085828 7 21 6.4 8.0 0.00 0.00 0.00 78 1015.2
20260507085325 7 34 6.4 8.0 0.00 0.00 0.00 79 1015.4
20260507084822 7 38 6.4 8.0 0.00 0.00 0.00 78 1015.3
20260507084318 8 15 3.2 9.7 0.00 0.00 0.00 76 1015.5
20260507083816 8 28 6.4 11.3 0.00 0.00 0.00 75 1015.2
20260507083312 8 26 12.9 16.1 0.00 0.00 0.00 75 1015.5
20260507082808 8 26 12.9 17.7 0.00 0.00 0.00 76 1015.3
20260507082306 8 37 11.3 19.3 0.00 0.00 0.00 77 1015.3
20260507081801 8 33 9.7 16.1 0.00 0.00 0.00 79 1015.4
20260507081257 8 38 4.8 11.3 0.00 0.00 0.00 82 1015.3
20260507080754 8 47 4.8 9.7 0.00 0.00 0.00 85 1015.3
20260507080250 8 30 6.4 8.0 0.00 0.00 0.00 86 1015.0
20260507075746 8 45 4.8 8.0 0.00 0.00 0.00 86 1015.4
20260507075242 8 19 3.2 9.7 0.00 0.00 0.00 86 1015.2
20260507074738 8 22 4.8 11.3 0.00 0.00 0.00 86 1015.3
20260507074237 8 8 3.2 4.8 0.00 0.00 0.00 86 1015.0
20260507073733 8 53 4.8 6.4 0.00 0.00 0.00 86 1015.2
20260507073229 8 32 4.8 9.7 0.00 0.00 0.00 85 1014.9
20260507072728 8 3 4.8 11.3 0.00 0.00 0.00 85 1015.3
20260507072225 8 14 8.0 12.9 0.00 0.00 0.00 85 1015.3
20260507071722 8 325 4.8 4.8 0.00 0.00 0.00 86 1014.9
20260507071218 8 2 4.8 8.0 0.00 0.00 0.00 86 1015.0
20260507070715 8 15 4.8 8.0 0.00 0.00 0.00 87 1014.9
20260507070212 9 14 4.8 4.8 0.00 0.00 0.00 87 1015.0
20260507065708 9 12 3.2 6.4 0.00 0.00 0.00 87 1015.0
20260507065206 9 14 8.0 11.3 0.00 0.00 0.00 88 1015.3
20260507064703 9 8 6.4 9.7 0.00 0.00 0.00 88 1015.0
20260507064202 9 23 4.8 11.3 0.00 0.00 0.00 87 1015.2
20260507063659 9 43 6.4 9.7 0.00 0.00 0.00 87 1015.3
20260507063155 9 358 4.8 8.0 0.00 0.00 0.00 88 1015.3
20260507062652 9 6 4.8 6.4 0.00 0.00 0.00 88 1015.3
20260507062150 9 31 6.4 12.9 0.00 0.00 0.00 88 1015.2
20260507061648 9 2 4.8 8.0 0.00 0.00 0.00 88 1015.0
20260507061145 10 47 4.8 8.0 0.00 0.00 0.00 88 1015.0
20260507060643 10 28 3.2 4.8 0.00 0.00 0.00 88 1015.0
20260507060139 10 21 4.8 8.0 0.00 0.00 0.00 87 1015.2
20260507055635 10 28 8.0 8.0 0.00 0.00 0.00 87 1015.2
20260507055131 10 22 6.4 9.7 0.00 0.00 0.00 87 1015.2
20260507054628 10 54 6.4 8.0 0.00 0.00 0.00 87 1015.3
20260507054125 10 42 4.8 9.7 0.00 0.00 0.00 87 1015.3
20260507053623 10 45 3.2 8.0 0.00 0.00 0.00 87 1015.5
20260507053121 10 46 6.4 6.4 0.00 0.00 0.00 87 1015.6
20260507052619 9 5 4.8 6.4 0.00 0.00 0.00 89 1015.7
20260507052115 9 337 0.0 8.0 0.00 0.00 0.00 92 1015.7
20260507051613 9 0 4.8 8.0 0.00 0.00 0.00 94 1015.7
20260507051109 8 4 4.8 11.3 0.00 0.00 0.00 96 1015.9
20260507050605 9 49 3.2 9.7 0.00 0.00 0.00 97 1015.8
20260507045559 9 82 0.0 8.0 0.00 0.00 0.00 98 1015.7
20260507045056 10 278 0.0 6.4 0.00 0.00 0.00 98 1015.6
20260507044552 10 279 0.0 4.8 0.00 0.00 0.00 98 1015.7
20260507044050 10 237 0.0 1.6 0.00 0.00 0.00 98 1015.5
20260507043545 10 257 1.6 3.2 0.00 0.00 0.00 98 1015.8
20260507043043 10 278 0.0 1.6 0.00 0.00 0.00 98 1015.4
20260507042538 10 263 0.0 3.2 0.00 0.00 0.00 98 1015.4
20260507042034 10 240 1.6 3.2 0.00 0.00 0.00 98 1015.4
20260507041531 10 297 0.0 3.2 0.00 0.00 0.00 98 1015.5
20260507041028 10 264 3.2 3.2 0.00 0.00 0.00 98 1015.5
20260507040525 10 278 1.6 3.2 0.00 0.00 0.00 98 1015.4
20260507040020 10 283 1.6 4.8 0.00 1.14 1.14 98 1015.3
20260507035517 10 263 1.6 3.2 0.00 1.14 1.14 97 1015.3
20260507035013 10 251 1.6 3.2 0.00 1.14 1.14 97 1015.4
20260507034510 10 270 3.2 3.2 0.00 1.14 1.14 97 1015.3
20260507034008 10 234 0.0 4.8 0.00 1.14 1.14 97 1015.4
20260507033506 10 203 0.0 4.8 0.00 1.14 1.14 98 1015.5
20260507033003 10 285 1.6 4.8 0.00 1.14 1.14 98 1015.5
20260507032500 10 233 0.0 4.8 0.00 1.14 1.14 98 1015.3
20260507031956 10 270 0.0 1.6 0.00 1.14 1.14 97 1015.7
20260507031452 10 261 0.0 3.2 0.00 1.14 1.14 97 1015.9
20260507030949 10 257 1.6 3.2 0.00 1.14 1.14 97 1015.9
20260507030446 10 255 0.0 3.2 0.00 1.14 1.14 97 1015.8
20260507025943 10 300 3.2 4.8 0.00 1.14 1.14 97 1015.6
20260507025441 10 250 4.8 4.8 0.00 1.14 1.14 96 1015.5
20260507024939 10 294 1.6 3.2 0.00 1.14 1.14 96 1015.3
20260507024436 10 254 1.6 1.6 0.00 1.14 1.14 96 1015.4
20260507023931 10 251 0.0 1.6 0.00 1.14 1.14 96 1015.5
20260507023428 10 270 0.0 3.2 0.00 1.14 1.14 96 1015.2
20260507022925 10 220 1.6 3.2 0.00 1.14 1.14 96 1015.0
20260507022423 10 209 1.6 3.2 0.00 1.14 1.14 96 1015.0
20260507021918 10 225 3.2 4.8 0.00 1.14 1.14 96 1015.2
20260507021413 10 203 0.0 3.2 0.00 1.14 1.14 96 1014.9
20260507020912 10 194 1.6 3.2 0.00 1.14 1.14 96 1015.0
20260507020408 10 180 0.0 1.6 0.00 1.14 1.14 96 1014.9
20260507015905 10 186 0.0 1.6 0.00 1.14 1.14 96 1014.8
20260507015403 10 180 0.0 1.6 0.00 1.14 1.14 96 1014.9
20260507014900 10 264 1.6 3.2 0.00 1.14 1.14 96 1015.0
20260507014356 10 246 1.6 3.2 0.00 1.14 1.14 96 1014.8
20260507013853 10 188 0.0 3.2 0.00 1.14 1.14 96 1015.0
20260507013350 10 180 0.0 3.2 0.00 1.14 1.14 96 1014.7
20260507012847 10 188 0.0 1.6 0.00 1.14 1.14 96 1014.6
20260507012343 10 188 0.0 3.2 0.00 1.14 1.14 96 1014.6
20260507011840 11 215 1.6 3.2 0.00 1.14 1.14 95 1014.9
20260507011337 11 213 3.2 4.8 0.00 1.14 1.14 95 1015.0
20260507010831 10 209 0.0 1.6 0.00 1.14 1.14 95 1014.6
20260507010327 10 109 0.0 0.0 0.00 1.14 1.14 94 1014.4
20260507005825 11 157 0.0 1.6 0.00 1.14 1.14 94 1014.1
20260507005322 11 90 0.0 3.2 0.00 1.14 1.14 94 1014.3
20260507004819 11 67 3.2 4.8 0.00 1.14 1.14 93 1014.1
20260507004316 11 90 4.8 4.8 0.00 1.14 1.14 93 1014.3
20260507003813 11 83 1.6 3.2 0.00 1.14 1.14 93 1014.5
20260507003308 11 90 0.0 1.6 0.00 1.14 1.14 92 1014.7
20260507002803 11 74 1.6 3.2 0.00 1.14 1.14 92 1014.5
20260507002259 11 66 0.0 4.8 0.00 1.14 1.14 92 1014.4
20260507001756 11 21 0.0 3.2 0.00 1.14 1.14 92 1014.3
20260507001254 11 33 3.2 4.8 0.00 1.14 1.14 92 1014.3
20260507000750 11 73 3.2 3.2 0.00 1.14 1.14 92 1014.3
20260507000246 11 60 1.6 3.2 0.00 1.14 1.14 92 1014.6
20260506235743 11 279 0.0 0.0 0.00 1.14 1.14 92 1015.0
20260506235238 11 246 0.0 0.0 0.00 1.14 1.14 92 1014.9
20260506234735 11 26 0.0 1.6 0.00 1.14 1.14 92 1014.8
20260506234232 11 261 0.0 0.0 0.00 1.14 1.14 92 1014.6
20260506233730 11 245 0.0 3.2 0.00 1.14 1.14 92 1014.6